sat.trackr.live / text

‹ back to catalog

STARLINK-32190

NORAD 60318 · 2024-133T

PAYLOAD ACTIVE UNKNOWN

§ Identity

Operator
Country
US
Launch date
2024-07-28
Launch site
AFWTR
Launch vehicle
Mass (kg)
RCS (m²)

Purposes: comms

External: N2YO · Heavens-Above · Gunter

§ Orbital elements

Epoch: 2026-05-24T17:27:21.661920Z

Period
94.11 min
Inclination
53.1618°
Eccentricity
0.0001202
Mean motion
15.30198147 rev/d
Perigee alt
474.4 km
Apogee alt
476.0 km
Semi-major
6,853.4 km
B*
-9.9366e-5
RAAN
303.7568°
Arg perigee
83.9574°
Mean anomaly
276.1563°
Rev number
10,328

§ Raw data

STARLINK-321901 60318U 24133T   26144.72733405 -.00003301  00000+0 -99366-4 0  99942 60318  53.1618 303.7568 0001202  83.9574 276.1563 15.30198147103280

JSON: /api/v1/satellites/60318 · /tle

For live sub-satellite position, see the globe view (requires WebGL).

§ Visibility from observer

Set your observer location to see the next 7 days of passes ≥ 10°. The values pass through the URL so the page stays shareable.

No JS? Fill the form by hand. The geolocation button needs JavaScript.